Location: Limerick
(52.6650°N, 8.6230°W)
Time: 19:45:50
(UTC+01:00)

ISS - Pass Details

Date: 24 July 2017
Orbit: 400 x 408 km, 51.6° (Epoch: 21 July)

Event Time Altitude Azimuth Distance (km) Brightness Sun altitude
Rises 01:31:17 0° 265° (W) 2,312 0.0 -17.4°
Reaches altitude 10° 01:33:21 10° 263° (W) 1,453 -1.1 -17.5°
Maximum altitude 01:36:36 75° 178° (S) 419 -4.0 -17.5°
Drops below altitude 10° 01:39:52 10° 93° (E) 1,456 -1.1 -17.5°
Sets 01:41:56 0° 92° (E) 2,316 0.0 -17.5°
